User: anonymous   Login
Location: Unspecified
(0.0000°N, 0.0000°E)
Time: 20:24:50
(UTC+00:00)
Language:

STARLINK-3610 - Orbit

View from above orbital plane
View from above orbital plane
View from above satellite
View from above satellite

Ground track
Ground track

The orbit is defined by the following mean orbital elements,

1 51812U          26145.27625118 +.00000000 +00000-0 +49014-4 0 00002
2 51812  53.2131 345.3074 0001169  98.8989 261.2136 15.08836545    04
Epoch (UTC): 25 May 2026 06:37:48
Eccentricity: 0.0001169
inclination: 53.2131°
perigee height: 539 km
apogee height: 541 km
right ascension of ascending node: 345.3074°
argument of perigee: 98.8989°
revolutions per day: 15.08836545
mean anomaly at epoch: 261.2136°

The dashed part of the orbit path shows where the satellite is in the earth's shadow,  

DLR